| time (UTC) | temp C | wind direction | speed KPH | gust KPH | rain 1hr cm | rain 24hr cm | rain mn cm | humidity % | barometer mb |
| 20260905210016 | 12 | 225 | 0.0 | 0.0 | 0.00 | 0.00 | 0.00 | 100 | 1024.0 |
| 20260905205509 | 12 | 225 | 0.0 | 1.6 | 0.00 | 0.00 | 0.00 | 100 | 1024.0 |
| 20260905205001 | 13 | 225 | 0.0 | 0.0 | 0.00 | 0.00 | 0.00 | 100 | 1023.9 |
| 20260905204454 | 13 | 241 | 0.0 | 0.0 | 0.00 | 0.00 | 0.00 | 100 | 1023.9 |
| 20260905203947 | 13 | 238 | 0.0 | 1.6 | 0.00 | 0.00 | 0.00 | 100 | 1023.9 |
| 20260905203439 | 13 | 244 | 0.0 | 0.0 | 0.00 | 0.00 | 0.00 | 100 | 1023.8 |
| 20260905202932 | 13 | 270 | 0.0 | 3.2 | 0.00 | 0.00 | 0.00 | 100 | 1023.7 |
| 20260905202425 | 13 | 161 | 0.0 | 3.2 | 0.00 | 0.00 | 0.00 | 100 | 1023.7 |
| 20260905201918 | 13 | 125 | 0.0 | 1.6 | 0.00 | 0.00 | 0.00 | 100 | 1023.7 |
| 20260905201410 | 13 | 135 | 0.0 | 0.0 | 0.00 | 0.00 | 0.00 | 100 | 1023.7 |
| 20260905200903 | 13 | 161 | 0.0 | 0.0 | 0.00 | 0.00 | 0.00 | 100 | 1023.6 |
| 20260905200356 | 14 | 180 | 0.0 | 0.0 | 0.00 | 0.00 | 0.00 | 100 | 1023.6 |
| 20260905195848 | 14 | 180 | 0.0 | 0.0 | 0.00 | 0.00 | 0.00 | 100 | 1023.5 |
| 20260905195341 | 14 | 180 | 0.0 | 0.0 | 0.00 | 0.00 | 0.00 | 100 | 1023.4 |
| 20260905194833 | 14 | 180 | 0.0 | 0.0 | 0.00 | 0.00 | 0.00 | 100 | 1023.3 |
| 20260905194326 | 14 | 203 | 0.0 | 0.0 | 0.00 | 0.00 | 0.00 | 100 | 1023.3 |
| 20260905193819 | 15 | 225 | 0.0 | 0.0 | 0.00 | 0.00 | 0.00 | 100 | 1023.3 |
| 20260905193311 | 15 | 222 | 0.0 | 1.6 | 0.00 | 0.00 | 0.00 | 100 | 1023.2 |
| 20260905192804 | 15 | 170 | 0.0 | 0.0 | 0.00 | 0.00 | 0.00 | 99 | 1023.1 |
| 20260905192257 | 15 | 222 | 0.0 | 0.0 | 0.00 | 0.00 | 0.00 | 99 | 1023.1 |
| 20260905191749 | 15 | 186 | 0.0 | 0.0 | 0.00 | 0.00 | 0.00 | 97 | 1023.0 |
| 20260905191242 | 15 | 153 | 0.0 | 3.2 | 0.00 | 0.00 | 0.00 | 98 | 1022.9 |
| 20260905190734 | 15 | 245 | 1.6 | 4.8 | 0.00 | 0.00 | 0.00 | 99 | 1022.8 |
| 20260905190227 | 16 | 327 | 1.6 | 6.4 | 0.00 | 0.00 | 0.00 | 98 | 1022.8 |
| 20260905185719 | 16 | 156 | 0.0 | 3.2 | 0.00 | 0.00 | 0.00 | 98 | 1022.7 |
| 20260905185212 | 16 | 151 | 0.0 | 0.0 | 0.00 | 0.00 | 0.00 | 97 | 1022.6 |
| 20260905184705 | 16 | 135 | 0.0 | 0.0 | 0.00 | 0.00 | 0.00 | 97 | 1022.5 |
| 20260905184157 | 16 | 135 | 0.0 | 0.0 | 0.00 | 0.00 | 0.00 | 95 | 1022.4 |
| 20260905183650 | 16 | 138 | 0.0 | 3.2 | 0.00 | 0.00 | 0.00 | 94 | 1022.4 |
| 20260905183142 | 16 | 75 | 0.0 | 1.6 | 0.00 | 0.00 | 0.00 | 94 | 1022.3 |
| 20260905182634 | 17 | 26 | 0.0 | 0.0 | 0.00 | 0.00 | 0.00 | 93 | 1022.2 |
| 20260905182127 | 17 | 128 | 0.0 | 3.2 | 0.00 | 0.00 | 0.00 | 90 | 1022.1 |
| 20260905181619 | 17 | 234 | 1.6 | 4.8 | 0.00 | 0.00 | 0.00 | 89 | 1022.0 |
| 20260905181112 | 17 | 273 | 0.0 | 3.2 | 0.00 | 0.00 | 0.00 | 90 | 1022.0 |
| 20260905180604 | 18 | 225 | 0.0 | 1.6 | 0.00 | 0.00 | 0.00 | 85 | 1021.9 |
| 20260905180057 | 18 | 157 | 0.0 | 3.2 | 0.00 | 0.00 | 0.00 | 89 | 1021.8 |
| 20260905175549 | 18 | 166 | 1.6 | 4.8 | 0.00 | 0.00 | 0.00 | 84 | 1021.7 |
| 20260905175041 | 18 | 169 | 1.6 | 4.8 | 0.00 | 0.00 | 0.00 | 87 | 1021.5 |
| 20260905174534 | 18 | 159 | 1.6 | 4.8 | 0.00 | 0.00 | 0.00 | 85 | 1021.5 |
| 20260905174026 | 18 | 171 | 1.6 | 6.4 | 0.00 | 0.00 | 0.00 | 87 | 1021.3 |
| 20260905173518 | 18 | 134 | 1.6 | 4.8 | 0.00 | 0.00 | 0.00 | 88 | 1021.2 |
| 20260905173011 | 18 | 120 | 1.6 | 3.2 | 0.00 | 0.00 | 0.00 | 86 | 1021.2 |
| 20260905172503 | 18 | 94 | 1.6 | 4.8 | 0.00 | 0.00 | 0.00 | 89 | 1021.1 |
| 20260905171956 | 18 | 3 | 0.0 | 0.0 | 0.00 | 0.00 | 0.00 | 93 | 1021.1 |
| 20260905171448 | 18 | 128 | 0.0 | 0.0 | 0.00 | 0.00 | 0.00 | 91 | 1021.1 |
| 20260905170940 | 18 | 336 | 1.6 | 3.2 | 0.00 | 0.00 | 0.00 | 87 | 1021.1 |
| 20260905170433 | 18 | 68 | 0.0 | 1.6 | 0.00 | 0.00 | 0.00 | 88 | 1021.0 |
| 20260905165925 | 18 | 139 | 1.6 | 4.8 | 0.00 | 0.00 | 0.00 | 86 | 1021.0 |
| 20260905165417 | 18 | 73 | 1.6 | 3.2 | 0.00 | 0.00 | 0.00 | 86 | 1020.8 |
| 20260905164910 | 19 | 163 | 0.0 | 1.6 | 0.00 | 0.00 | 0.00 | 87 | 1020.8 |
| 20260905164402 | 19 | 153 | 0.0 | 0.0 | 0.00 | 0.00 | 0.00 | 89 | 1020.7 |
| 20260905163854 | 19 | 180 | 1.6 | 3.2 | 0.00 | 0.00 | 0.00 | 83 | 1020.7 |
| 20260905163347 | 19 | 154 | 0.0 | 1.6 | 0.00 | 0.00 | 0.00 | 84 | 1020.7 |
| 20260905162839 | 19 | 143 | 1.6 | 3.2 | 0.00 | 0.00 | 0.00 | 77 | 1020.7 |
| 20260905162331 | 19 | 145 | 0.0 | 1.6 | 0.00 | 0.00 | 0.00 | 82 | 1020.6 |
| 20260905161823 | 19 | 102 | 0.0 | 0.0 | 0.00 | 0.00 | 0.00 | 80 | 1020.5 |
| 20260905161316 | 19 | 185 | 1.6 | 3.2 | 0.00 | 0.00 | 0.00 | 76 | 1020.4 |
| 20260905160808 | 19 | 211 | 1.6 | 8.0 | 0.00 | 0.00 | 0.00 | 80 | 1020.5 |
| 20260905160300 | 19 | 251 | 1.6 | 4.8 | 0.00 | 0.00 | 0.00 | 76 | 1020.4 |
| 20260905155753 | 20 | 166 | 1.6 | 4.8 | 0.00 | 0.00 | 0.00 | 76 | 1020.4 |
| 20260905155245 | 20 | 195 | 1.6 | 3.2 | 0.00 | 0.00 | 0.00 | 75 | 1020.3 |
| 20260905154737 | 20 | 207 | 1.6 | 4.8 | 0.00 | 0.00 | 0.00 | 73 | 1020.3 |
| 20260905154229 | 20 | 292 | 1.6 | 4.8 | 0.00 | 0.00 | 0.00 | 72 | 1020.2 |
| 20260905153722 | 20 | 184 | 1.6 | 4.8 | 0.00 | 0.00 | 0.00 | 67 | 1020.2 |
| 20260905153214 | 20 | 170 | 1.6 | 6.4 | 0.00 | 0.00 | 0.00 | 63 | 1020.2 |
| 20260905152706 | 20 | 206 | 3.2 | 11.3 | 0.00 | 0.00 | 0.00 | 66 | 1020.2 |
| 20260905152158 | 20 | 235 | 4.8 | 14.5 | 0.00 | 0.00 | 0.00 | 63 | 1020.3 |
| 20260905151650 | 21 | 184 | 1.6 | 4.8 | 0.00 | 0.00 | 0.00 | 67 | 1020.3 |
| 20260905151142 | 21 | 172 | 1.6 | 9.7 | 0.00 | 0.00 | 0.00 | 65 | 1020.3 |
| 20260905150635 | 21 | 148 | 1.6 | 4.8 | 0.00 | 0.00 | 0.00 | 64 | 1020.3 |
| 20260905150127 | 21 | 181 | 3.2 | 12.9 | 0.00 | 0.00 | 0.00 | 63 | 1020.3 |
| 20260905145619 | 21 | 198 | 4.8 | 12.9 | 0.00 | 0.00 | 0.00 | 60 | 1020.4 |
| 20260905145111 | 21 | 208 | 1.6 | 6.4 | 0.00 | 0.00 | 0.00 | 67 | 1020.1 |
| 20260905144603 | 21 | 128 | 3.2 | 11.3 | 0.00 | 0.00 | 0.00 | 63 | 1020.2 |
| 20260905144055 | 22 | 239 | 1.6 | 6.4 | 0.00 | 0.00 | 0.00 | 62 | 1020.2 |
| 20260905143547 | 22 | 208 | 1.6 | 8.0 | 0.00 | 0.00 | 0.00 | 59 | 1020.2 |
| 20260905143039 | 23 | 188 | 3.2 | 9.7 | 0.00 | 0.00 | 0.00 | 56 | 1020.1 |
| 20260905142531 | 24 | 168 | 1.6 | 4.8 | 0.00 | 0.00 | 0.00 | 50 | 1020.1 |
| 20260905142023 | 25 | 187 | 1.6 | 6.4 | 0.00 | 0.00 | 0.00 | 59 | 1020.2 |
| 20260905141515 | 25 | 137 | 3.2 | 8.0 | 0.00 | 0.00 | 0.00 | 56 | 1020.2 |
| 20260905141007 | 24 | 208 | 3.2 | 8.0 | 0.00 | 0.00 | 0.00 | 59 | 1020.3 |
| 20260905140459 | 23 | 180 | 3.2 | 9.7 | 0.00 | 0.00 | 0.00 | 54 | 1020.4 |
| 20260905135951 | 22 | 217 | 3.2 | 4.8 | 0.00 | 0.00 | 0.00 | 52 | 1020.4 |
| 20260905135443 | 22 | 132 | 1.6 | 6.4 | 0.00 | 0.00 | 0.00 | 61 | 1020.5 |
| 20260905134935 | 22 | 173 | 3.2 | 6.4 | 0.00 | 0.00 | 0.00 | 55 | 1020.5 |
| 20260905134427 | 22 | 224 | 3.2 | 12.9 | 0.00 | 0.00 | 0.00 | 54 | 1020.6 |
| 20260905133919 | 23 | 229 | 3.2 | 8.0 | 0.00 | 0.00 | 0.00 | 51 | 1020.5 |
| 20260905133410 | 25 | 172 | 3.2 | 4.8 | 0.00 | 0.00 | 0.00 | 58 | 1020.5 |
| 20260905132902 | 25 | 186 | 4.8 | 11.3 | 0.00 | 0.00 | 0.00 | 54 | 1020.5 |
| 20260905132354 | 26 | 194 | 1.6 | 9.7 | 0.00 | 0.00 | 0.00 | 50 | 1020.4 |
| 20260905131845 | 26 | 141 | 1.6 | 6.4 | 0.00 | 0.00 | 0.00 | 47 | 1020.6 |
| 20260905131337 | 25 | 186 | 1.6 | 9.7 | 0.00 | 0.00 | 0.00 | 61 | 1020.6 |
| 20260905130829 | 25 | 192 | 3.2 | 11.3 | 0.00 | 0.00 | 0.00 | 53 | 1020.6 |
| 20260905130321 | 25 | 177 | 3.2 | 6.4 | 0.00 | 0.00 | 0.00 | 68 | 1020.6 |
| 20260905125813 | 25 | 8 | 1.6 | 4.8 | 0.00 | 0.00 | 0.00 | 58 | 1020.7 |
| 20260905125306 | 23 | 154 | 1.6 | 8.0 | 0.00 | 0.00 | 0.00 | 69 | 1020.7 |
| 20260905124756 | 23 | 188 | 1.6 | 8.0 | 0.00 | 0.00 | 0.00 | 64 | 1020.8 |
| 20260905124248 | 23 | 169 | 3.2 | 11.3 | 0.00 | 0.00 | 0.00 | 53 | 1020.8 |
| 20260905123740 | 23 | 144 | 3.2 | 12.9 | 0.00 | 0.00 | 0.00 | 66 | 1020.8 |
| 20260905123232 | 23 | 191 | 1.6 | 8.0 | 0.00 | 0.00 | 0.00 | 59 | 1021.0 |
| 20260905122724 | 25 | 211 | 3.2 | 14.5 | 0.00 | 0.00 | 0.00 | 58 | 1020.9 |
| 20260905122216 | 25 | 176 | 3.2 | 8.0 | 0.00 | 0.00 | 0.00 | 66 | 1021.1 |
| 20260905121708 | 25 | 272 | 3.2 | 6.4 | 0.00 | 0.00 | 0.00 | 58 | 1021.0 |
| 20260905121159 | 25 | 175 | 3.2 | 4.8 | 0.00 | 0.00 | 0.00 | 68 | 1021.0 |
| 20260905120651 | 23 | 208 | 3.2 | 6.4 | 0.00 | 0.00 | 0.00 | 69 | 1021.2 |
| 20260905120143 | 23 | 205 | 3.2 | 8.0 | 0.00 | 0.00 | 0.00 | 73 | 1021.1 |
| 20260905115635 | 23 | 206 | 3.2 | 8.0 | 0.00 | 0.00 | 0.00 | 73 | 1021.2 |
| 20260905115127 | 24 | 179 | 3.2 | 11.3 | 0.00 | 0.00 | 0.00 | 55 | 1021.2 |
| 20260905114619 | 23 | 190 | 3.2 | 9.7 | 0.00 | 0.00 | 0.00 | 75 | 1021.1 |
| 20260905114111 | 23 | 195 | 3.2 | 9.7 | 0.00 | 0.00 | 0.00 | 58 | 1021.3 |
| 20260905113603 | 23 | 158 | 1.6 | 8.0 | 0.00 | 0.00 | 0.00 | 72 | 1021.2 |
| 20260905113055 | 23 | 200 | 1.6 | 3.2 | 0.00 | 0.00 | 0.00 | 65 | 1021.3 |
| 20260905112547 | 23 | 180 | 3.2 | 9.7 | 0.00 | 0.00 | 0.00 | 75 | 1021.2 |
| 20260905112038 | 23 | 249 | 3.2 | 12.9 | 0.00 | 0.00 | 0.00 | 53 | 1021.2 |
| 20260905111530 | 25 | 128 | 1.6 | 8.0 | 0.00 | 0.00 | 0.00 | 83 | 1021.2 |
| 20260905111022 | 25 | 166 | 3.2 | 8.0 | 0.00 | 0.00 | 0.00 | 76 | 1021.2 |
| 20260905110514 | 25 | 160 | 1.6 | 4.8 | 0.00 | 0.00 | 0.00 | 83 | 1021.2 |
| 20260905110006 | 24 | 185 | 1.6 | 6.4 | 0.00 | 0.00 | 0.00 | 65 | 1021.2 |
| 20260905105458 | 22 | 161 | 4.8 | 12.9 | 0.00 | 0.00 | 0.00 | 75 | 1021.3 |
| 20260905104950 | 22 | 145 | 3.2 | 8.0 | 0.00 | 0.00 | 0.00 | 68 | 1021.2 |
| 20260905104442 | 21 | 57 | 0.0 | 1.6 | 0.00 | 0.00 | 0.00 | 93 | 1021.2 |
| 20260905103934 | 22 | 157 | 1.6 | 8.0 | 0.00 | 0.00 | 0.00 | 98 | 1021.2 |
| 20260905103426 | 23 | 162 | 1.6 | 6.4 | 0.00 | 0.00 | 0.00 | 89 | 1021.2 |
| 20260905102918 | 24 | 168 | 1.6 | 4.8 | 0.00 | 0.00 | 0.00 | 99 | 1021.0 |
| 20260905102410 | 22 | 162 | 1.6 | 4.8 | 0.00 | 0.00 | 0.00 | 87 | 1021.2 |
| 20260905101902 | 22 | 199 | 1.6 | 4.8 | 0.00 | 0.00 | 0.00 | 100 | 1021.2 |
| 20260905101354 | 22 | 179 | 1.6 | 3.2 | 0.00 | 0.00 | 0.00 | 100 | 1021.2 |
| 20260905100846 | 23 | 185 | 1.6 | 6.4 | 0.00 | 0.00 | 0.00 | 84 | 1021.2 |
| 20260905100338 | 23 | 175 | 1.6 | 9.7 | 0.00 | 0.00 | 0.00 | 93 | 1021.2 |
| 20260905095829 | 25 | 166 | 1.6 | 4.8 | 0.00 | 0.00 | 0.00 | 94 | 1021.1 |
| 20260905095321 | 26 | 180 | 1.6 | 8.0 | 0.00 | 0.00 | 0.00 | 79 | 1021.1 |
| 20260905094813 | 26 | 177 | 3.2 | 9.7 | 0.00 | 0.00 | 0.00 | 87 | 1021.0 |
| 20260905094305 | 25 | 210 | 1.6 | 6.4 | 0.00 | 0.00 | 0.00 | 100 | 1021.0 |
| 20260905093756 | 25 | 178 | 1.6 | 6.4 | 0.00 | 0.00 | 0.00 | 99 | 1021.0 |
| 20260905093248 | 24 | 161 | 3.2 | 9.7 | 0.00 | 0.00 | 0.00 | 96 | 1021.1 |
| 20260905092740 | 24 | 159 | 1.6 | 12.9 | 0.00 | 0.00 | 0.00 | 75 | 1021.1 |
| 20260905092232 | 24 | 189 | 1.6 | 6.4 | 0.00 | 0.00 | 0.00 | 97 | 1021.1 |
| 20260905091724 | 24 | 220 | 1.6 | 9.7 | 0.00 | 0.00 | 0.00 | 100 | 1021.1 |
| 20260905091216 | 23 | 149 | 1.6 | 3.2 | 0.00 | 0.00 | 0.00 | 100 | 1021.2 |
| 20260905090708 | 23 | 169 | 1.6 | 8.0 | 0.00 | 0.00 | 0.00 | 97 | 1021.2 |
| 20260905090200 | 23 | 114 | 1.6 | 6.4 | 0.00 | 0.00 | 0.00 | 100 | 1021.2 |
| 20260905085652 | 23 | 190 | 0.0 | 3.2 | 0.00 | 0.00 | 0.00 | 100 | 1021.1 |
| 20260905085144 | 22 | 162 | 0.0 | 1.6 | 0.00 | 0.00 | 0.00 | 100 | 1021.1 |
| 20260905084636 | 22 | 158 | 0.0 | 3.2 | 0.00 | 0.00 | 0.00 | 100 | 1021.0 |
| 20260905084128 | 21 | 131 | 1.6 | 4.8 | 0.00 | 0.00 | 0.00 | 100 | 1021.1 |
| 20260905083620 | 21 | 175 | 1.6 | 4.8 | 0.00 | 0.00 | 0.00 | 100 | 1021.0 |
| 20260905083112 | 20 | 192 | 1.6 | 8.0 | 0.00 | 0.00 | 0.00 | 100 | 1021.0 |
| 20260905082605 | 20 | 160 | 0.0 | 3.2 | 0.00 | 0.00 | 0.00 | 100 | 1020.9 |
| 20260905082057 | 19 | 216 | 1.6 | 8.0 | 0.00 | 0.00 | 0.00 | 100 | 1020.9 |
| 20260905081549 | 18 | 171 | 0.0 | 6.4 | 0.00 | 0.00 | 0.00 | 100 | 1020.9 |
| 20260905081042 | 18 | 178 | 0.0 | 0.0 | 0.00 | 0.00 | 0.00 | 100 | 1020.7 |
| 20260905080534 | 17 | 141 | 1.6 | 8.0 | 0.00 | 0.00 | 0.00 | 100 | 1020.7 |
| 20260905080026 | 17 | 134 | 0.0 | 3.2 | 0.00 | 0.00 | 0.00 | 100 | 1020.5 |
| 20260905075519 | 16 | 139 | 0.0 | 3.2 | 0.00 | 0.00 | 0.00 | 100 | 1020.6 |
| 20260905075012 | 16 | 135 | 0.0 | 1.6 | 0.00 | 0.00 | 0.00 | 100 | 1020.5 |
| 20260905074504 | 16 | 167 | 0.0 | 0.0 | 0.00 | 0.00 | 0.00 | 100 | 1020.5 |
| 20260905073957 | 16 | 198 | 0.0 | 1.6 | 0.00 | 0.00 | 0.00 | 100 | 1020.4 |
| 20260905073450 | 15 | 189 | 0.0 | 0.0 | 0.00 | 0.00 | 0.00 | 100 | 1020.4 |
| 20260905072942 | 13 | 121 | 0.0 | 0.0 | 0.00 | 0.00 | 0.00 | 100 | 1020.5 |
| 20260905072435 | 12 | 221 | 0.0 | 0.0 | 0.00 | 0.00 | 0.00 | 100 | 1020.4 |
| 20260905071928 | 12 | 222 | 0.0 | 0.0 | 0.00 | 0.00 | 0.00 | 100 | 1020.4 |
| 20260905071420 | 12 | 184 | 0.0 | 0.0 | 0.00 | 0.00 | 0.00 | 100 | 1020.2 |
| 20260905070913 | 12 | 196 | 0.0 | 0.0 | 0.00 | 0.00 | 0.00 | 100 | 1020.2 |
| 20260905070406 | 12 | 90 | 0.0 | 0.0 | 0.00 | 0.00 | 0.00 | 100 | 1020.2 |
| 20260905065859 | 12 | 177 | 0.0 | 0.0 | 0.00 | 0.00 | 0.00 | 100 | 1020.0 |
| 20260905065352 | 12 | 180 | 0.0 | 0.0 | 0.00 | 0.00 | 0.00 | 100 | 1019.9 |
| 20260905064844 | 11 | 181 | 0.0 | 0.0 | 0.00 | 0.00 | 0.00 | 100 | 1019.9 |
| 20260905064337 | 11 | 206 | 0.0 | 0.0 | 0.00 | 0.00 | 0.00 | 100 | 1019.9 |
| 20260905063830 | 11 | 180 | 0.0 | 0.0 | 0.00 | 0.00 | 0.00 | 100 | 1019.9 |
| 20260905063323 | 11 | 193 | 0.0 | 1.6 | 0.00 | 0.00 | 0.00 | 100 | 1019.8 |
| 20260905062816 | 11 | 191 | 0.0 | 0.0 | 0.00 | 0.00 | 0.00 | 100 | 1020.0 |
| 20260905062309 | 11 | 208 | 0.0 | 0.0 | 0.00 | 0.00 | 0.00 | 100 | 1019.9 |
| 20260905061802 | 11 | 207 | 0.0 | 0.0 | 0.00 | 0.00 | 0.00 | 100 | 1019.9 |
| 20260905061254 | 11 | 177 | 0.0 | 0.0 | 0.00 | 0.00 | 0.00 | 100 | 1019.9 |
| 20260905060747 | 11 | 223 | 0.0 | 0.0 | 0.00 | 0.00 | 0.00 | 100 | 1020.0 |
| 20260905031406 | 13 | 183 | 0.0 | 0.0 | 0.00 | 0.00 | 0.00 | 100 | 1018.3 |
| 20260905030859 | 13 | 180 | 0.0 | 0.0 | 0.00 | 0.00 | 0.00 | 100 | 1018.3 |
| 20260905030351 | 13 | 165 | 0.0 | 0.0 | 0.00 | 0.00 | 0.00 | 100 | 1017.8 |
| 20260905025844 | 13 | 180 | 0.0 | 0.0 | 0.00 | 0.00 | 0.00 | 100 | 1017.8 |
| 20260905025337 | 13 | 180 | 0.0 | 1.6 | 0.00 | 0.00 | 0.00 | 100 | 1017.9 |
| 20260905024830 | 13 | 142 | 0.0 | 0.0 | 0.00 | 0.00 | 0.00 | 100 | 1017.8 |
| 20260905024322 | 14 | 174 | 0.0 | 3.2 | 0.00 | 0.00 | 0.00 | 100 | 1018.3 |
| 20260905023815 | 14 | 101 | 0.0 | 0.0 | 0.00 | 0.00 | 0.00 | 100 | 1017.7 |
| 20260905023307 | 14 | 45 | 0.0 | 0.0 | 0.00 | 0.00 | 0.00 | 100 | 1017.3 |
| 20260905022800 | 14 | 201 | 0.0 | 0.0 | 0.00 | 0.00 | 0.00 | 100 | 1017.2 |
| 20260905022253 | 14 | 180 | 0.0 | 0.0 | 0.00 | 0.00 | 0.00 | 100 | 1017.3 |
| 20260905021745 | 14 | 180 | 0.0 | 0.0 | 0.00 | 0.00 | 0.00 | 100 | 1017.0 |
| 20260905021238 | 14 | 180 | 0.0 | 0.0 | 0.00 | 0.00 | 0.00 | 100 | 1016.9 |
| 20260905020731 | 14 | 180 | 0.0 | 0.0 | 0.00 | 0.00 | 0.00 | 100 | 1016.9 |
| 20260905020223 | 15 | 148 | 0.0 | 0.0 | 0.00 | 0.00 | 0.00 | 100 | 1016.8 |
| 20260905015716 | 15 | 135 | 0.0 | 0.0 | 0.00 | 0.00 | 0.00 | 100 | 1017.2 |
| 20260905015209 | 15 | 135 | 0.0 | 0.0 | 0.00 | 0.00 | 0.00 | 100 | 1017.1 |
| 20260905014701 | 15 | 163 | 0.0 | 1.6 | 0.00 | 0.00 | 0.00 | 99 | 1017.0 |
| 20260905014154 | 16 | 180 | 0.0 | 0.0 | 0.00 | 0.00 | 0.00 | 97 | 1017.0 |
| 20260905013646 | 16 | 162 | 0.0 | 0.0 | 0.00 | 0.00 | 0.00 | 95 | 1017.0 |
| 20260905013139 | 16 | 142 | 0.0 | 1.6 | 0.00 | 0.00 | 0.00 | 94 | 1016.6 |
| 20260905012631 | 16 | 180 | 0.0 | 0.0 | 0.00 | 0.00 | 0.00 | 94 | 1016.5 |
| 20260905012124 | 16 | 170 | 0.0 | 0.0 | 0.00 | 0.00 | 0.00 | 94 | 1016.3 |
| 20260905011616 | 16 | 161 | 0.0 | 3.2 | 0.00 | 0.00 | 0.00 | 93 | 1016.3 |
| 20260905011109 | 16 | 115 | 0.0 | 4.8 | 0.00 | 0.00 | 0.00 | 95 | 1016.4 |
| 20260905010601 | 16 | 135 | 0.0 | 1.6 | 0.00 | 0.00 | 0.00 | 96 | 1016.4 |
| 20260905010054 | 16 | 127 | 1.6 | 9.7 | 0.00 | 0.00 | 0.00 | 97 | 1016.2 |
| 20260905005546 | 16 | 144 | 1.6 | 4.8 | 0.00 | 0.00 | 0.00 | 100 | 1016.3 |
| 20260905005039 | 16 | 238 | 0.0 | 3.2 | 0.00 | 0.00 | 0.00 | 98 | 1016.3 |
| 20260905004531 | 16 | 211 | 1.6 | 4.8 | 0.00 | 0.00 | 0.00 | 94 | 1016.1 |
| 20260905004024 | 16 | 315 | 1.6 | 6.4 | 0.00 | 0.00 | 0.00 | 92 | 1016.1 |
| 20260905003516 | 17 | 316 | 1.6 | 8.0 | 0.00 | 0.00 | 0.00 | 89 | 1016.0 |
| 20260905003009 | 18 | 23 | 1.6 | 3.2 | 0.00 | 0.00 | 0.00 | 83 | 1015.8 |
| 20260905002501 | 18 | 352 | 1.6 | 4.8 | 0.00 | 0.00 | 0.00 | 80 | 1015.5 |
| 20260905001953 | 18 | 342 | 1.6 | 4.8 | 0.00 | 0.00 | 0.00 | 79 | 1015.4 |
| 20260905001446 | 19 | 307 | 3.2 | 8.0 | 0.00 | 0.00 | 0.00 | 77 | 1015.5 |
| 20260905000938 | 20 | 348 | 3.2 | 6.4 | 0.00 | 0.00 | 0.00 | 74 | 1015.1 |
| 20260905000432 | 20 | 236 | 0.0 | 1.6 | 0.00 | 0.00 | 0.00 | 74 | 1015.0 |
| 20260904235922 | 20 | 112 | 0.0 | 0.0 | 0.00 | 0.00 | 0.00 | 73 | 1014.3 |